TimeCDT,TemperatureF,Dew PointF,Humidity,Sea Level PressureIn,VisibilityMPH,Wind Direction,Wind SpeedMPH,Gust SpeedMPH,PrecipitationIn,Events,Conditions,WindDirDegrees,DateUTC
12:11 AM,46.4,33.8,62,30.10,10.0,Calm,Calm,-,N/A,,Clear,0,2013-06-04 05:11:00
12:31 AM,46.4,35.6,66,30.10,10.0,Calm,Calm,-,N/A,,Clear,0,2013-06-04 05:31:00
12:52 AM,46.4,35.6,66,30.10,10.0,Calm,Calm,-,N/A,,Clear,0,2013-06-04 05:52:00
1:11 AM,44.6,37.4,76,30.10,10.0,North,3.5,-,N/A,,Clear,350,2013-06-04 06:11:00
1:31 AM,44.6,35.6,71,30.09,10.0,Calm,Calm,-,N/A,,Clear,0,2013-06-04 06:31:00
1:52 AM,44.6,37.4,76,30.10,10.0,NNW,3.5,-,N/A,,Clear,340,2013-06-04 06:52:00
2:11 AM,44.6,37.4,76,30.09,10.0,Calm,Calm,-,N/A,,Clear,0,2013-06-04 07:11:00
2:31 AM,46.4,35.6,66,30.10,10.0,North,3.5,-,N/A,,Mostly Cloudy,360,2013-06-04 07:31:00
2:52 AM,48.2,32.0,54,30.11,10.0,NNW,4.6,-,N/A,,Scattered Clouds,340,2013-06-04 07:52:00
3:11 AM,48.2,32.0,54,30.11,10.0,North,3.5,-,N/A,,Scattered Clouds,350,2013-06-04 08:11:00
3:31 AM,46.4,35.6,66,30.12,10.0,Calm,Calm,-,N/A,,Overcast,0,2013-06-04 08:31:00
3:52 AM,46.4,37.4,71,30.13,10.0,Calm,Calm,-,N/A,,Mostly Cloudy,0,2013-06-04 08:52:00
4:11 AM,44.6,37.4,76,30.14,10.0,Calm,Calm,-,N/A,,Overcast,0,2013-06-04 09:11:00
4:31 AM,46.4,35.6,66,30.13,10.0,Calm,Calm,-,N/A,,Overcast,0,2013-06-04 09:31:00
4:51 AM,46.4,35.6,66,30.14,10.0,Calm,Calm,-,N/A,,Overcast,0,2013-06-04 09:51:00
5:11 AM,46.4,37.4,71,30.14,10.0,Calm,Calm,-,N/A,,Overcast,0,2013-06-04 10:11:00
5:32 AM,46.4,33.8,62,30.12,10.0,NE,3.5,-,N/A,,Mostly Cloudy,40,2013-06-04 10:32:00
5:51 AM,46.4,33.8,62,30.12,10.0,NE,4.6,-,N/A,,Scattered Clouds,40,2013-06-04 10:51:00
6:11 AM,46.4,32.0,57,30.12,10.0,NE,6.9,-,N/A,,Scattered Clouds,40,2013-06-04 11:11:00
6:32 AM,46.4,30.2,53,30.11,10.0,NE,5.8,-,N/A,,Scattered Clouds,40,2013-06-04 11:32:00
6:51 AM,48.2,30.2,50,30.11,10.0,ENE,5.8,-,N/A,,Scattered Clouds,60,2013-06-04 11:51:00
7:12 AM,48.2,30.2,50,30.12,10.0,NE,5.8,-,N/A,,Mostly Cloudy,40,2013-06-04 12:12:00
7:31 AM,48.2,30.2,50,30.12,10.0,NE,4.6,-,N/A,,Scattered Clouds,40,2013-06-04 12:31:00
7:51 AM,48.2,32.0,54,30.13,10.0,NE,3.5,-,N/A,,Scattered Clouds,40,2013-06-04 12:51:00
8:12 AM,48.2,32.0,54,30.14,10.0,NNE,3.5,-,N/A,,Mostly Cloudy,30,2013-06-04 13:12:00
8:31 AM,50.0,32.0,50,30.15,10.0,NE,3.5,-,N/A,,Mostly Cloudy,50,2013-06-04 13:31:00
8:51 AM,51.8,33.8,50,30.15,10.0,NE,5.8,-,N/A,,Scattered Clouds,40,2013-06-04 13:51:00
9:11 AM,51.8,32.0,47,30.15,10.0,NE,5.8,-,N/A,,Scattered Clouds,40,2013-06-04 14:11:00
9:31 AM,51.8,32.0,47,30.16,10.0,NE,5.8,-,N/A,,Scattered Clouds,40,2013-06-04 14:31:00
9:51 AM,51.8,32.0,47,30.16,10.0,NE,9.2,-,N/A,,Mostly Cloudy,50,2013-06-04 14:51:00
10:11 AM,55.4,32.0,41,30.15,10.0,ENE,10.4,-,N/A,,Mostly Cloudy,60,2013-06-04 15:11:00
10:31 AM,55.4,33.8,44,30.15,10.0,ENE,8.1,-,N/A,,Scattered Clouds,60,2013-06-04 15:31:00
10:51 AM,55.4,32.0,41,30.16,10.0,ENE,11.5,-,N/A,,Clear,70,2013-06-04 15:51:00
11:11 AM,55.4,32.0,41,30.16,10.0,ENE,11.5,-,N/A,,Clear,70,2013-06-04 16:11:00
11:30 AM,55.4,30.2,38,30.16,10.0,ENE,13.8,-,N/A,,Scattered Clouds,70,2013-06-04 16:30:00
11:51 AM,55.4,32.0,41,30.16,10.0,ENE,15.0,-,N/A,,Scattered Clouds,70,2013-06-04 16:51:00
12:11 PM,55.4,33.8,44,30.15,10.0,East,10.4,18.4,N/A,,Scattered Clouds,80,2013-06-04 17:11:00
12:32 PM,55.4,30.2,38,30.15,10.0,East,11.5,-,N/A,,Scattered Clouds,80,2013-06-04 17:32:00
12:51 PM,55.4,30.2,38,30.17,10.0,East,8.1,-,N/A,,Scattered Clouds,80,2013-06-04 17:51:00
1:11 PM,55.4,30.2,38,30.15,10.0,ENE,13.8,18.4,N/A,,Overcast,60,2013-06-04 18:11:00
1:31 PM,57.2,30.2,36,30.14,10.0,ENE,10.4,-,N/A,,Overcast,70,2013-06-04 18:31:00
1:51 PM,59.0,32.0,36,30.14,10.0,ENE,11.5,-,N/A,,Overcast,60,2013-06-04 18:51:00
2:11 PM,60.8,33.8,36,30.13,10.0,East,10.4,-,N/A,,Mostly Cloudy,100,2013-06-04 19:11:00
2:31 PM,60.8,33.8,36,30.13,10.0,East,11.5,16.1,N/A,,Mostly Cloudy,90,2013-06-04 19:31:00
2:51 PM,59.0,33.8,39,30.13,10.0,East,13.8,-,N/A,,Overcast,80,2013-06-04 19:51:00
3:11 PM,57.2,33.8,41,30.13,10.0,East,12.7,-,N/A,,Overcast,90,2013-06-04 20:11:00
3:31 PM,57.2,33.8,41,30.14,10.0,East,11.5,-,N/A,,Overcast,80,2013-06-04 20:31:00
3:51 PM,57.2,30.2,36,30.13,10.0,ENE,13.8,19.6,N/A,,Overcast,70,2013-06-04 20:51:00
4:11 PM,57.2,30.2,36,30.13,10.0,East,13.8,-,N/A,,Overcast,80,2013-06-04 21:11:00
4:31 PM,55.4,28.4,36,30.13,10.0,ENE,13.8,20.7,N/A,,Overcast,70,2013-06-04 21:31:00
4:52 PM,55.4,28.4,36,30.13,10.0,ENE,12.7,18.4,N/A,,Overcast,60,2013-06-04 21:52:00
5:11 PM,55.4,28.4,36,30.12,10.0,ENE,12.7,19.6,N/A,,Overcast,60,2013-06-04 22:11:00
5:31 PM,55.4,28.4,36,30.12,10.0,ENE,12.7,-,N/A,,Overcast,70,2013-06-04 22:31:00
5:52 PM,55.4,28.4,36,30.12,10.0,ENE,12.7,17.3,N/A,,Overcast,60,2013-06-04 22:52:00
6:11 PM,55.4,26.6,33,30.12,10.0,NE,11.5,20.7,N/A,,Overcast,50,2013-06-04 23:11:00
6:31 PM,55.4,26.6,33,30.11,10.0,NE,12.7,20.7,N/A,,Overcast,50,2013-06-04 23:31:00
6:51 PM,55.4,26.6,33,30.12,10.0,ENE,10.4,16.1,N/A,,Overcast,70,2013-06-04 23:51:00
7:11 PM,55.4,26.6,33,30.12,10.0,ENE,10.4,-,N/A,,Overcast,70,2013-06-05 00:11:00
7:31 PM,53.6,28.4,38,30.13,10.0,ENE,8.1,16.1,N/A,,Overcast,70,2013-06-05 00:31:00
7:51 PM,53.6,26.6,35,30.14,10.0,ENE,12.7,18.4,N/A,,Overcast,70,2013-06-05 00:51:00
8:12 PM,53.6,26.6,35,30.14,10.0,ENE,10.4,-,N/A,,Overcast,60,2013-06-05 01:12:00
8:31 PM,51.8,26.6,38,30.14,10.0,ENE,11.5,17.3,N/A,,Overcast,60,2013-06-05 01:31:00
8:51 PM,50.0,26.6,40,30.14,10.0,ENE,10.4,-,N/A,,Overcast,60,2013-06-05 01:51:00
9:12 PM,50.0,26.6,40,30.15,10.0,NE,6.9,-,N/A,,Overcast,40,2013-06-05 02:12:00
9:31 PM,50.0,26.6,40,30.15,10.0,NNE,6.9,-,N/A,,Overcast,30,2013-06-05 02:31:00
9:51 PM,51.8,26.6,38,30.15,10.0,NE,5.8,-,N/A,,Overcast,40,2013-06-05 02:51:00
10:12 PM,51.8,28.4,41,30.15,10.0,NNE,3.5,-,N/A,,Overcast,30,2013-06-05 03:12:00
10:31 PM,51.8,28.4,41,30.14,10.0,NNE,5.8,-,N/A,,Overcast,30,2013-06-05 03:31:00
10:51 PM,51.8,28.4,41,30.13,10.0,NE,4.6,-,N/A,,Mostly Cloudy,50,2013-06-05 03:51:00
11:12 PM,50.0,28.4,43,30.13,10.0,Calm,Calm,-,N/A,,Overcast,0,2013-06-05 04:12:00
11:31 PM,50.0,28.4,43,30.13,10.0,ENE,5.8,-,N/A,,Mostly Cloudy,70,2013-06-05 04:31:00
11:51 PM,48.2,28.4,46,30.13,10.0,Calm,Calm,-,N/A,,Mostly Cloudy,0,2013-06-05 04:51:00